Regional Weather Roundup
Issued by NWS Albany, NY

Home | Current Version | Previous Version | Text Only | Print | Product List | Glossary On
Versions: 1 2 3 4 5 6 7 8 9 10 11 12 13 14 15 16 17 18 19 20 21 22 23 24 25 26 27 28 29 30 31 32 33 34 35 36 37 38 39 40 41 42 43 44 45 46 47 48 49 50
000
ASUS41 KALY 290110
RWRALY

NEW YORK STATE HOURLY WEATHER ROUNDUP
NATIONAL WEATHER SERVICE ALBANY NY
900 PM EDT THU MAY 28 2015

NOTE: "FAIR" INDICATES FEW OR NO CLOUDS BELOW 12,000 FEET WITH NO
SIGNIFICANT WEATHER AND/OR NO OBSTRUCTIONS TO VISIBILITY.

NYZ032-033-038>043-046>054-057>066-NYZ062>081-290200-
EAST


CITY           SKY/WX    TMP DP  RH WIND       PRES   REMARKS
ALBANY         MOCLDY    68  54  60 NW7       30.24R
GLENS FALLS    PTCLDY    66  53  63 NW7       30.22S
POUGHKEEPSIE   CLEAR     74  55  51 N10       30.19R
NEWBURGH       CLEAR     72  57  60 NW5       30.20R
MONTGOMERY     CLEAR     72  55  55 NW7       30.20R
WHITE PLAINS   PTCLDY    71  67  87 NW5       30.18R
ISLIP          CLOUDY    66  61  84 SW6       30.16R
NEW YORK CITY  MOCLDY    77  64  64 VRB5      30.16R
CENTRAL PARK   MOCLDY    80  55  42 VRB3      30.20R
$$

NYZ005>009-017-018-044>046-055-056-290200-
CENTRAL


CITY           SKY/WX    TMP DP  RH WIND       PRES   REMARKS
FULTON         CLEAR     61  56  83 CALM      30.25R
SYRACUSE       PTCLDY    65  56  72 CALM      30.25R
ROME           CLEAR     63  54  72 N5        30.26R
ELMIRA         CLEAR     65  55  70 E6        30.27R
BINGHAMTON     CLEAR     63  52  67 NE5       30.29R
MONTICELLO     CLEAR     64  54  68 N7        30.28R
$$

NYZ026>034-041>043-290200-
NORTH


CITY           SKY/WX    TMP DP  RH WIND       PRES   REMARKS
WATERTOWN      CLEAR     60  53  77 S3        30.25R
FORT DRUM      NOT AVBL
MASSENA        CLEAR     58  54  86 CALM      30.24R
SARANAC LAKE   CLEAR     55  54  96 W3        30.26R
PLATTSBURGH    CLOUDY    66  56  70 NW6       30.21R
$$

NYZ001>004-010>016-019>021-290200-
WEST


CITY           SKY/WX    TMP DP  RH WIND       PRES   REMARKS
NIAGARA FALLS  PTCLDY    69  53  56 CALM      30.24S
BUFFALO        PTCLDY    70  52  52 CALM      30.25S
DUNKIRK        CLEAR     63  56  78 CALM      30.25S
JAMESTOWN      CLEAR     66  52  59 NE5       30.29S
WELLSVILLE     CLEAR     66  50  56 NE5       30.31R
ROCHESTER      PTCLDY    70  53  54 CALM      30.26R
PENN YAN       CLEAR     63  54  72 CALM      30.27R
$$

             KEY
       WCI = WIND CHILL INDEX
       VSB = VISIBILITY
       HX  = HEAT INDEX
$$



USA.gov is the U.S. government's official web portal to all federal, state and local government web resources and services.